Location: La Bastide
(43.1661°N, 1.2755°E)
Time: 08:01:33
(UTC+00:00)

Cosmos 1953 Rocket - Pass Details

Date: 21 March 2026
Orbit: 599 x 626 km, 82.5° (Epoch: 18 April)

Event Time Altitude Azimuth Distance (km) Brightness Sun altitude
Rises 05:12:39 0° 352° (N) 2,897 7.0 -8.8°
Reaches altitude 10° 05:14:52 10° 353° (N) 1,991 6.2 -8.4°
Maximum altitude 05:19:18 84° 83° (E) 630 3.7 -7.6°
Drops below altitude 10° 05:23:43 10° 171° (S) 1,988 6.2 -6.8°
Sets 05:25:56 0° 172° (S) 2,892 7.0 -6.4°
